TimeEST,TemperatureF,Dew PointF,Humidity,Sea Level PressureIn,VisibilityMPH,Wind Direction,Wind SpeedMPH,Gust SpeedMPH,PrecipitationIn,Events,Conditions,WindDirDegrees,DateUTC
12:15 AM,42.8,21.2,42,30.05,10.0,SW,16.1,-,N/A,,Clear,220,2014-02-19 05:15:00
12:36 AM,42.8,21.2,42,30.04,10.0,SW,15.0,-,N/A,,Clear,230,2014-02-19 05:36:00
12:55 AM,44.6,21.2,39,30.03,10.0,SW,13.8,20.7,N/A,,Clear,220,2014-02-19 05:55:00
1:15 AM,44.6,21.2,39,30.02,10.0,SW,11.5,17.3,N/A,,Clear,220,2014-02-19 06:15:00
1:35 AM,44.6,23.0,43,30.01,10.0,SW,13.8,-,N/A,,Clear,220,2014-02-19 06:35:00
1:55 AM,46.4,24.8,43,30.01,10.0,SW,13.8,19.6,N/A,,Scattered Clouds,220,2014-02-19 06:55:00
2:15 AM,46.4,26.6,46,30.00,10.0,SSW,10.4,-,N/A,,Mostly Cloudy,210,2014-02-19 07:15:00
2:35 AM,46.4,28.4,50,29.99,10.0,SSW,9.2,18.4,N/A,,Mostly Cloudy,210,2014-02-19 07:35:00
2:56 AM,44.6,28.4,53,29.97,10.0,SSW,10.4,-,N/A,,Mostly Cloudy,210,2014-02-19 07:56:00
3:16 AM,44.6,28.4,53,29.96,10.0,SSW,9.2,-,N/A,,Mostly Cloudy,200,2014-02-19 08:16:00
3:35 AM,46.4,28.4,50,29.95,10.0,SSW,13.8,18.4,N/A,,Mostly Cloudy,210,2014-02-19 08:35:00
3:55 AM,44.6,28.4,53,29.96,10.0,SSW,13.8,18.4,N/A,Thunderstorm,Overcast,200,2014-02-19 08:55:00
4:15 AM,42.8,33.8,70,29.95,10.0,SW,15.0,20.7,N/A,,Overcast,230,2014-02-19 09:15:00
4:35 AM,44.6,33.8,66,29.92,10.0,SSW,12.7,19.6,N/A,,Mostly Cloudy,200,2014-02-19 09:35:00
4:55 AM,42.8,32.0,66,29.90,10.0,South,11.5,-,N/A,Thunderstorm,Unknown,190,2014-02-19 09:55:00
5:15 AM,42.8,32.0,66,29.90,10.0,SSW,12.7,18.4,N/A,,Scattered Clouds,200,2014-02-19 10:15:00
5:35 AM,42.8,33.8,70,29.89,10.0,South,13.8,-,N/A,Thunderstorm,Mostly Cloudy,190,2014-02-19 10:35:00
5:56 AM,44.6,33.8,66,29.88,10.0,SSW,11.5,18.4,N/A,,Mostly Cloudy,200,2014-02-19 10:56:00
6:15 AM,44.6,37.4,76,29.87,10.0,SSW,17.3,26.5,N/A,,Mostly Cloudy,210,2014-02-19 11:15:00
6:35 AM,42.8,39.2,87,29.88,7.0,WSW,10.4,20.7,N/A,Rain,Light Rain,240,2014-02-19 11:35:00
6:55 AM,44.6,41.0,87,29.86,10.0,SW,17.3,25.3,N/A,,Overcast,230,2014-02-19 11:55:00
7:15 AM,42.8,41.0,93,29.87,4.0,WSW,17.3,-,0.06,Rain,Rain,250,2014-02-19 12:15:00
7:35 AM,42.8,41.0,93,29.88,10.0,WSW,11.5,19.6,0.07,,Overcast,250,2014-02-19 12:35:00
7:55 AM,42.8,41.0,93,29.88,5.0,WSW,18.4,24.2,N/A,Rain,Light Rain,240,2014-02-19 12:55:00
8:15 AM,42.8,41.0,93,29.88,7.0,WSW,23.0,27.6,N/A,,Overcast,240,2014-02-19 13:15:00
8:36 AM,42.8,42.8,100,29.88,5.0,WSW,25.3,31.1,N/A,Rain,Light Rain,240,2014-02-19 13:36:00
8:55 AM,42.8,42.8,100,29.88,1.0,WSW,24.2,31.1,0.01,,Overcast,250,2014-02-19 13:55:00
9:15 AM,42.8,42.8,100,29.88,0.2,WSW,20.7,29.9,0.01,Rain,Light Rain,250,2014-02-19 14:15:00
9:35 AM,42.8,42.8,100,29.88,0.2,WSW,20.7,28.8,0.01,Rain,Light Rain,250,2014-02-19 14:35:00
9:55 AM,42.8,42.8,100,29.87,0.2,West,23.0,27.6,N/A,Rain,Light Rain,260,2014-02-19 14:55:00
10:15 AM,42.8,42.8,100,29.87,0.2,WSW,20.7,27.6,N/A,Rain,Light Rain,250,2014-02-19 15:15:00
10:35 AM,42.8,42.8,100,29.87,0.2,West,19.6,29.9,N/A,Rain,Light Rain,260,2014-02-19 15:35:00
10:55 AM,44.6,44.6,100,29.87,4.0,West,20.7,27.6,N/A,Rain,Light Rain,260,2014-02-19 15:55:00
11:15 AM,44.6,44.6,100,29.87,7.0,West,24.2,35.7,N/A,,Overcast,260,2014-02-19 16:15:00
11:35 AM,44.6,42.8,93,29.87,7.0,West,25.3,33.4,N/A,,Overcast,260,2014-02-19 16:35:00
11:55 AM,44.6,42.8,93,29.87,10.0,West,19.6,29.9,N/A,,Overcast,260,2014-02-19 16:55:00
12:15 PM,46.4,42.8,87,29.87,10.0,West,19.6,26.5,N/A,,Overcast,270,2014-02-19 17:15:00
12:36 PM,46.4,41.0,81,29.85,10.0,West,28.8,41.4,N/A,,Overcast,270,2014-02-19 17:36:00
12:55 PM,46.4,39.2,76,29.85,10.0,West,23.0,35.7,N/A,,Overcast,260,2014-02-19 17:55:00
1:15 PM,48.2,39.2,71,29.84,10.0,West,26.5,39.1,N/A,,Mostly Cloudy,260,2014-02-19 18:15:00
1:35 PM,48.2,37.4,66,29.84,10.0,West,29.9,43.7,N/A,,Mostly Cloudy,260,2014-02-19 18:35:00
1:55 PM,48.2,37.4,66,29.83,10.0,West,23.0,47.2,N/A,,Overcast,270,2014-02-19 18:55:00
2:15 PM,48.2,37.4,66,29.83,10.0,West,21.9,31.1,N/A,,Overcast,270,2014-02-19 19:15:00
2:35 PM,50.0,37.4,62,29.82,10.0,West,29.9,38.0,N/A,,Scattered Clouds,270,2014-02-19 19:35:00
2:55 PM,48.2,35.6,62,29.82,7.0,West,32.2,46.0,N/A,,Unknown,270,2014-02-19 19:55:00
3:15 PM,50.0,35.6,58,29.85,10.0,West,29.9,44.9,N/A,,Clear,260,2014-02-19 20:15:00
3:35 PM,50.0,33.8,54,29.86,5.0,West,31.1,41.4,N/A,,Haze,270,2014-02-19 20:35:00
3:55 PM,48.2,32.0,54,29.88,7.0,West,27.6,41.4,N/A,,Clear,270,2014-02-19 20:55:00
4:04 PM,48.2,33.8,58,29.89,7.0,West,28.8,46.0,N/A,,Clear,270,2014-02-19 21:04:00
4:15 PM,48.2,32.0,54,29.90,7.0,West,26.5,43.7,N/A,,Clear,270,2014-02-19 21:15:00
4:35 PM,48.2,30.2,50,29.93,7.0,West,20.7,38.0,N/A,,Clear,280,2014-02-19 21:35:00
4:55 PM,48.2,30.2,50,29.94,10.0,West,21.9,28.8,N/A,,Clear,280,2014-02-19 21:55:00
5:35 PM,46.4,28.4,50,29.98,10.0,West,17.3,27.6,N/A,,Clear,270,2014-02-19 22:35:00
5:55 PM,46.4,26.6,46,29.99,10.0,WNW,21.9,32.2,N/A,,Clear,290,2014-02-19 22:55:00
6:15 PM,44.6,26.6,49,30.02,10.0,West,20.7,31.1,N/A,,Clear,280,2014-02-19 23:15:00
6:35 PM,44.6,26.6,49,30.03,10.0,West,17.3,31.1,N/A,,Clear,280,2014-02-19 23:35:00
6:55 PM,44.6,24.8,46,30.05,10.0,WNW,20.7,28.8,N/A,,Clear,290,2014-02-19 23:55:00
7:15 PM,42.8,24.8,49,30.07,10.0,WNW,16.1,24.2,N/A,,Clear,290,2014-02-20 00:15:00
7:35 PM,42.8,21.2,42,30.07,10.0,WNW,24.2,32.2,N/A,,Clear,290,2014-02-20 00:35:00
7:55 PM,42.8,21.2,42,30.07,10.0,WNW,18.4,26.5,N/A,,Clear,290,2014-02-20 00:55:00
7:56 PM,42.8,21.2,42,30.07,10.0,WNW,19.6,26.5,N/A,,Clear,300,2014-02-20 00:56:00
8:55 PM,39.2,23.0,52,30.10,10.0,West,11.5,18.4,N/A,,Clear,280,2014-02-20 01:55:00
9:15 PM,39.2,23.0,52,30.11,10.0,WNW,13.8,19.6,N/A,,Clear,290,2014-02-20 02:15:00
9:35 PM,39.2,23.0,52,30.12,10.0,WNW,11.5,17.3,N/A,,Clear,290,2014-02-20 02:35:00
9:56 PM,37.4,23.0,56,30.13,10.0,WNW,11.5,-,N/A,,Clear,290,2014-02-20 02:56:00
10:16 PM,37.4,24.8,60,30.13,10.0,WNW,10.4,-,N/A,,Clear,290,2014-02-20 03:16:00
10:36 PM,37.4,23.0,56,30.13,10.0,NW,9.2,-,N/A,,Clear,310,2014-02-20 03:36:00
10:56 PM,37.4,23.0,56,30.12,10.0,NW,10.4,-,N/A,,Clear,310,2014-02-20 03:56:00
11:22 PM,37.4,23.0,56,30.12,10.0,WNW,8.1,-,N/A,,Clear,300,2014-02-20 04:22:00
11:42 PM,37.4,23.0,56,30.13,10.0,WNW,10.4,-,N/A,,Clear,290,2014-02-20 04:42:00